Home > Weather > Owen Sound > Past weeks

Flag for Canada Past Weather in Owen Sound, Ontario, Canada — Yesterday and Last 2 Weeks

Now
73 °F

Thunderstorms. Mostly cloudy.


Feels Like: 72 °F
Forecast: 66 / 81 °F
Wind: 13 mph from South

Location: Wiarton

Current Time: Jul 25, 2016 at 4:17:46 AM

Latest Report: Jul 25, 2016 at 3:00 AM


Visibility: 10 mi

Pressure: 29.79 "Hg

Humidity: 89%

Dew Point: 70 °F

Location of Owen SoundLocation

Past Weather in Owen Sound — Graph

°F

Owen Sound Temperature Yesterday

Maximum temperature yesterday: 82 °F (at 4:00 PM)
Minimum temperature yesterday: 61 °F (at 4:00 AM)
Average temperature yesterday: 72 °F

High & Low Weather Summary for the Past Weeks

 TemperatureHumidityPressure
High86 °F (Jul 12, 1:00 PM)100% (Jul 10, 3:00 AM)30.29 "Hg (Jul 10, 3:00 AM)
Low46 °F (Jul 16, 6:00 AM)44% (Jul 20, 12:00 PM)29.67 "Hg (Jul 14, 6:00 AM)
Average69 °F75%29.98 "Hg
* Reported Jul 10 3:00 AM — Jul 25 3:00 AM, Owen Sound, Weather by CustomWeather, © 2016

Note: Actual official high and low records may vary slightly from our data, if they occured in-between our weather recording intervals... More about our weather records

Advertising

Owen Sound Weather History for the Previous 24 Hours

Scroll right to see more
 ConditionsComfort  
Time TempWeatherWind HumidityBarometerVisibility
3:00 AM
Mon, Jul 25
73 °FThunderstorms. Mostly cloudy.13 mph89%29.79 "Hg10 mi
2:00 AM73 °FThunderstorms. Mostly cloudy.10 mph94%29.78 "Hg12 mi
1:00 AM73 °FThunderstorms. Overcast.12 mph94%29.82 "Hg10 mi
12:00 AM73 °FOvercast.13 mph94%29.82 "Hg12 mi
11:00 PM
Sun, Jul 24
73 °FOvercast.8 mph94%29.84 "Hg12 mi
10:00 PM73 °FScattered showers. Overcast.13 mph94%29.85 "Hg12 mi
9:00 PM75 °FThunderstorms. Partly sunny.6 mph89%29.87 "Hg12 mi
8:00 PM79 °FBroken clouds.5 mph74%29.86 "Hg15 mi
7:00 PM79 °FPartly sunny.9 mph74%29.87 "Hg15 mi
6:00 PM82 °FBroken clouds.9 mph62%29.87 "Hg15 mi
5:00 PM82 °FBroken clouds.10 mph58%29.88 "Hg15 mi
4:00 PM82 °FMore clouds than sun.14 mph51%29.89 "Hg15 mi
3:00 PM79 °FMore clouds than sun.5 mph61%29.92 "Hg15 mi
2:00 PM77 °FMore clouds than sun.6 mph61%29.93 "Hg15 mi
1:00 PM75 °FBroken clouds.5 mph61%29.94 "Hg15 mi
12:00 PM79 °FMore clouds than sun.12 mph58%29.93 "Hg15 mi
11:00 AM75 °FMore clouds than sun.8 mph65%29.97 "Hg15 mi
10:00 AM75 °FOvercast.9 mph65%29.97 "Hg15 mi
9:00 AM73 °FPartly sunny.10 mph65%29.98 "Hg15 mi
8:00 AM70 °FPartly sunny.9 mph73%29.98 "Hg15 mi
7:00 AM64 °FPassing clouds.6 mph88%29.98 "Hg15 mi
6:00 AM63 °FPartly cloudy.6 mph88%29.99 "Hg15 mi
5:00 AM61 °FPassing clouds.7 mph94%29.99 "Hg15 mi
4:00 AM61 °FPassing clouds.7 mph100%30.00 "Hg15 mi
Weather by CustomWeather, © 2016

See weather overviewHow to use our weather pages